Weather History for KTTA - February, 2013

Change the Weather History Date:

Monday, February 11, 2013

  Actual Average (KRDU) Record (KRDU)
Temperature  
Mean Temperature 53 °F 44 °F  
Max Temperature 64 °F 54 °F 80 °F (1932)
Min Temperature 43 °F 33 °F 10 °F (1899)
Degree Days  
Heating Degree Days 12 21  
Month to date heating degree days 243  
Since 1 July heating degree days 2240  
Cooling Degree Days 0 0  
Month to date cooling degree days 0  
Year to date cooling degree days 0  
Growing Degree Days 3 (Base 50)    
Moisture  
Dew Point 54 °F    
Average Humidity 89    
Maximum Humidity 97    
Minimum Humidity 77    
Precipitation  
Precipitation 0.02 in 0.11 in 1.03 in (1903)
Month to date precipitation 1.21  
Year to date precipitation 4.71  
Snow  
Snow 0.00 in 0.10 in 6.10 in (1912)
Month to date snowfall 0.9  
Since 1 July snowfall 4.5  
Snow Depth -    
Sea Level Pressure  
Sea Level Pressure 30.04 in    
Wind  
Wind Speed 5 mph (SW)    
Max Wind Speed 15 mph    
Max Gust Speed 23 mph    
Visibility 9 miles    
Events Rain    
T = Trace of Precipitation, MM = Missing Value Source: NWS Daily Summary

Daily Weather History Graph

Daily Weather History Graph

Search for Another Location

Airport or City:

Trip Planner

Search our weather history database for the weather conditions in past years. The results will help you decide how hot, cold, wet, or windy it might be!

Date:

Astronomy

Feb. 11, 2013 Rise Set
Actual Time 7:07 AM EST 5:54 PM EST
Civil Twilight 6:40 AM EST 6:20 PM EST
Nautical Twilight 6:10 AM EST 6:50 PM EST
Astronomical Twilight 5:41 AM EST 7:20 PM EST
Moon 7:35 AM EST (2/11) 7:43 PM EST (2/11)
Length of Visible Light 11h 40m
Length of Day
10h 47m
Waxing Crescent, 3% of the Moon is Illuminated
Feb 11
Waxing Crescent
Feb 17
First Quarter
Feb 25
Full
Mar 4
Last Quarter
Mar 11
New

Hourly Weather History & Observations

Time (EST) Temp. Windchill Dew Point Humidity Pressure Visibility Wind Dir Wind Speed Gust Speed Precip Events Conditions
12:15 AM 45.5 °F - 43.2 °F 92% 30.20 in 10.0 mi Calm Calm - N/A   Scattered Clouds
12:35 AM 45.5 °F - 43.0 °F 91% 30.21 in 10.0 mi Calm Calm - N/A   Scattered Clouds
12:55 AM 45.0 °F - 43.0 °F 93% 30.19 in 10.0 mi Calm Calm - N/A   Mostly Cloudy
1:15 AM 44.1 °F - 42.4 °F 94% 30.18 in 7.0 mi Calm Calm - N/A   Overcast
1:35 AM 43.9 °F - 42.4 °F 95% 30.16 in 7.0 mi Calm Calm - N/A   Mostly Cloudy
1:55 AM 44.2 °F - 43.0 °F 95% 30.15 in 10.0 mi Calm Calm - N/A   Clear
2:15 AM 44.6 °F 43.1 °F 43.2 °F 95% 30.16 in 7.0 mi North 3.5 mph - N/A   Mostly Cloudy
2:35 AM 45.0 °F 42.6 °F 43.9 °F 96% 30.15 in 7.0 mi NNE 4.6 mph - N/A   Light Drizzle
2:55 AM 45.5 °F 44.2 °F 44.6 °F 97% 30.15 in 7.0 mi North 3.5 mph - N/A   Light Drizzle
3:15 AM 45.9 °F - 44.8 °F 96% 30.14 in 7.0 mi Calm Calm - N/A   Overcast
3:35 AM 46.4 °F - 45.1 °F 95% 30.12 in 10.0 mi Calm Calm - N/A   Overcast
4:15 AM 46.9 °F - 45.9 °F 96% 30.11 in 7.0 mi Calm Calm - N/A   Overcast
4:35 AM 47.3 °F - 46.0 °F 95% 30.11 in 7.0 mi Calm Calm - N/A   Overcast
4:55 AM 47.3 °F - 46.4 °F 97% 30.10 in 7.0 mi Calm Calm - N/A   Overcast
5:15 AM 47.5 °F - 46.6 °F 97% 30.09 in 7.0 mi Calm Calm - N/A   Overcast
5:35 AM 47.7 °F - 46.8 °F 97% 30.09 in 7.0 mi Calm Calm - N/A   Overcast
5:55 AM 48.2 °F - 47.3 °F 97% 30.10 in 7.0 mi Calm Calm - N/A Rain Light Rain
6:15 AM 48.6 °F - 47.7 °F 97% 30.10 in 4.0 mi Calm Calm - N/A Rain Rain
6:35 AM 49.5 °F - 48.7 °F 97% 30.09 in 5.0 mi Calm Calm - N/A   Overcast
6:55 AM 56.5 °F - 55.8 °F 97% 30.09 in 7.0 mi South 8.1 mph - N/A Rain Light Rain
7:15 AM 57.4 °F - 56.5 °F 97% 30.09 in 7.0 mi South 10.4 mph 16.1 mph 0.01 in Rain Rain
7:35 AM 57.6 °F - 56.3 °F 96% 30.09 in 10.0 mi South 8.1 mph - 0.01 in   Light Drizzle
7:55 AM 57.9 °F - 56.5 °F 95% 30.09 in 10.0 mi South 8.1 mph - 0.01 in   Drizzle
8:15 AM 58.1 °F - 56.7 °F 95% 30.09 in 10.0 mi South 8.1 mph - N/A   Drizzle
8:35 AM 58.1 °F - 56.7 °F 95% 30.08 in 10.0 mi South 8.1 mph - 0.01 in   Drizzle
8:55 AM 58.5 °F - 57.2 °F 96% 30.07 in 10.0 mi South 11.5 mph - 0.01 in   Light Drizzle
9:15 AM 59.0 °F - 57.4 °F 94% 30.04 in 10.0 mi South 13.8 mph 19.6 mph N/A   Overcast
9:35 AM 59.4 °F - 57.7 °F 94% 30.05 in 10.0 mi SSW 9.2 mph - N/A   Overcast
9:55 AM 59.9 °F - 57.7 °F 93% 30.05 in 10.0 mi SSW 12.7 mph 20.7 mph N/A   Light Drizzle
10:15 AM 60.8 °F - 58.1 °F 91% 30.07 in 10.0 mi SW 12.7 mph 17.3 mph N/A   Overcast
10:35 AM 61.0 °F - 58.1 °F 90% 30.07 in 10.0 mi SSW 15.0 mph 20.7 mph N/A   Overcast
10:55 AM 61.3 °F - 58.1 °F 89% 30.05 in 10.0 mi SSW 9.2 mph 18.4 mph N/A   Overcast
11:15 AM 61.3 °F - 58.1 °F 89% 30.04 in 10.0 mi SSW 10.4 mph 16.1 mph N/A   Overcast
11:35 AM 61.7 °F - 58.1 °F 88% 30.04 in 10.0 mi SSW 9.2 mph 18.4 mph N/A   Overcast
11:55 AM 61.9 °F - 58.3 °F 88% 30.02 in 10.0 mi SSW 11.5 mph 21.9 mph N/A   Overcast
12:15 PM 62.6 °F - 58.8 °F 87% 30.02 in 10.0 mi SW 10.4 mph 21.9 mph N/A   Overcast
12:35 PM 62.6 °F - 59.0 °F 88% 30.01 in 10.0 mi SSW 10.4 mph - N/A   Overcast
12:55 PM 62.2 °F - 58.8 °F 89% 30.01 in 10.0 mi SW 9.2 mph - N/A   Overcast
1:15 PM 61.9 °F - 59.2 °F 91% 30.01 in 4.0 mi SSW 10.4 mph - N/A   Light Drizzle
1:35 PM 61.9 °F - 59.4 °F 91% 30.00 in 5.0 mi SSW 9.2 mph - N/A   Overcast
1:55 PM 62.2 °F - 59.7 °F 91% 29.98 in 7.0 mi SSW 11.5 mph 19.6 mph N/A   Overcast
2:15 PM 62.8 °F - 59.5 °F 89% 29.97 in 10.0 mi SSW 10.4 mph 16.1 mph N/A   Overcast
2:35 PM 63.5 °F - 59.2 °F 86% 29.97 in 10.0 mi SSW 10.4 mph - N/A   Overcast
2:55 PM 63.7 °F - 59.0 °F 85% 29.97 in 10.0 mi SSW 10.4 mph 17.3 mph N/A   Overcast
3:15 PM 63.5 °F - 59.0 °F 85% 29.96 in 10.0 mi SSW 10.4 mph - N/A Rain Light Rain
3:35 PM 63.9 °F - 59.0 °F 84% 29.98 in 10.0 mi SW 11.5 mph 20.7 mph N/A   Overcast
4:15 PM 63.9 °F - 58.8 °F 84% 29.95 in 10.0 mi SSW 12.7 mph 18.4 mph N/A   Overcast
4:35 PM 63.9 °F - 58.5 °F 83% 29.94 in 10.0 mi SW 10.4 mph - N/A   Overcast
4:55 PM 63.9 °F - 58.3 °F 82% 29.93 in 10.0 mi SSW 13.8 mph 23.0 mph N/A   Overcast
6:15 PM 63.5 °F - 57.7 °F 81% 29.96 in 10.0 mi WSW 10.4 mph - N/A   Scattered Clouds
6:35 PM 63.5 °F - 57.6 °F 81% 29.96 in 10.0 mi WSW 9.2 mph 17.3 mph N/A   Clear
6:55 PM 63.0 °F - 57.2 °F 81% 29.96 in 10.0 mi SW 10.4 mph 17.3 mph N/A   Clear
7:15 PM 62.8 °F - 57.2 °F 82% 29.96 in 10.0 mi WSW 8.1 mph - N/A   Clear
7:35 PM 62.4 °F - 56.5 °F 81% 29.95 in 10.0 mi SW 8.1 mph - N/A   Clear
7:55 PM 62.6 °F - 56.1 °F 79% 29.98 in 10.0 mi West 6.9 mph - N/A   Scattered Clouds
8:15 PM 62.6 °F - 55.9 °F 79% 29.97 in 10.0 mi WSW 9.2 mph - N/A   Scattered Clouds
8:35 PM 62.1 °F - 55.6 °F 79% 29.95 in 10.0 mi SSW 12.7 mph - N/A   Clear
8:55 PM 61.9 °F - 54.9 °F 78% 29.96 in 10.0 mi WSW 9.2 mph - N/A   Clear
9:15 PM 61.9 °F - 54.7 °F 77% 29.97 in 10.0 mi WSW 8.1 mph - N/A   Clear
9:35 PM 61.3 °F - 54.5 °F 78% 29.97 in 10.0 mi SW 8.1 mph - N/A   Clear
9:55 PM 60.4 °F - 54.3 °F 80% 29.96 in 10.0 mi WSW 5.8 mph - N/A   Clear
10:15 PM 60.3 °F - 54.0 °F 80% 29.96 in 10.0 mi SW 8.1 mph - N/A   Clear
10:35 PM 60.1 °F - 53.6 °F 79% 29.97 in 10.0 mi WSW 6.9 mph - N/A   Clear
10:55 PM 59.5 °F - 53.2 °F 80% 29.96 in 10.0 mi SW 5.8 mph - N/A   Clear
11:15 PM 59.0 °F - 53.1 °F 81% 29.96 in 10.0 mi SW 9.2 mph - N/A   Clear
11:35 PM 58.8 °F - 52.9 °F 81% 29.96 in 10.0 mi SW 6.9 mph - N/A   Clear
11:55 PM 58.3 °F - 52.9 °F 82% 29.96 in 10.0 mi SW 4.6 mph - N/A   Clear